Kuchera_Ratio
0.0 0.0 0.0 0.0 0.0 0.0 0.0 0.0 0.0 0.0 0.0 0.0 0.0 0.0 0.0 0.0 0.0 0.0 0.0 0.0 0.0 0.0 0.0 0.0 0.0 0.0 0.0 0.0 0.0 0.0 0.5 1.5 7.3 2.5 0.0 0.0 0.0 0.0 0.0 0.0 0.0 0.0 0.0
0.0 0.0 0.0 0.0 0.0 0.0 0.0 0.0 0.0 0.0 0.0 0.0 0.0 0.0 0.0 0.0 0.0 0.0 0.0 0.0 0.0 0.0 0.0 0.0 0.0 0.0 0.0 0.0 0.0 1.7 2.3 1.9 5.5 8.5 3.1 1.7 0.5 0.0 0.0 0.0 0.0 0.0 0.0
0.0 0.0 0.0 0.0 0.0 0.0 0.0 0.0 0.0 0.0 0.0 0.0 0.0 0.0 0.0 0.0 0.0 0.0 0.0 0.0 0.0 0.0 0.0 0.0 0.3 0.9 1.9 1.3 1.9 3.1 3.3 4.3 4.9 7.5 7.7 2.3 1.1 0.0 0.9 0.0 0.0 0.0 0.0
0.0 0.0 0.0 0.0 0.0 0.0 0.0 0.0 0.0 0.0 0.0 0.0 0.0 0.0 0.0 0.0 0.0 0.0 0.0 0.0 0.0 0.0 0.3 1.1 2.1 3.1 3.9 3.9 5.7 6.5 6.5 8.9 8.9 9.3 8.9 7.3 5.3 1.5 1.9 3.1 2.1 0.0 0.0
0.0 0.0 0.0 0.0 0.0 0.0 0.0 0.0 0.0 0.0 0.0 0.0 0.0 0.0 0.0 0.0 0.0 0.0 0.0 0.0 0.9 1.9 2.1 2.7 3.5 5.5 7.5 6.9 6.9 7.9 8.9 10.5 9.9 10.3 9.3 8.3 7.9 6.5 7.9 3.9 5.7 2.9 0.1
0.0 0.0 0.0 0.0 0.0 0.0 0.0 0.0 0.0 0.0 0.0 0.0 0.0 0.0 0.0 0.0 3.9 4.1 3.5 1.5 2.7 4.1 5.5 4.9 4.9 7.1 6.5 8.7 9.1 8.9 8.7 11.1 11.7 11.1 10.9 10.5 8.5 6.9 5.3 6.1 8.1 9.5 7.5
0.0 0.0 0.0 0.0 0.0 0.0 0.0 0.0 0.0 0.0 0.0 0.0 0.0 0.0 0.9 0.9 5.1 5.3 6.3 2.5 4.7 5.7 6.5 7.1 7.5 6.3 8.1 7.5 7.9 8.1 8.1 7.9 9.1 9.9 12.1 9.1 8.7 6.1 6.3 7.9 7.7 8.1 8.5
0.0 0.0 0.0 0.0 0.0 0.0 0.0 0.0 0.0 0.0 0.0 0.0 0.0 0.9 1.7 2.9 6.9 7.3 8.1 4.5 5.9 6.5 7.1 7.7 7.9 8.5 7.9 9.7 10.1 8.9 7.7 6.1 5.5 6.1 7.1 6.7 5.5 4.9 5.1 6.9 7.7 6.7 4.5
0.0 0.0 0.0 0.0 0.0 0.0 0.0 0.0 0.0 0.0 0.0 0.0 0.0 2.3 3.1 3.7 8.3 8.1 7.3 7.3 8.5 8.7 7.9 7.1 8.3 9.5 10.7 10.1 10.5 11.9 10.3 8.5 5.7 6.5 6.7 6.3 6.7 6.9 6.7 7.1 10.5 10.1 11.1
0.0 0.0 0.0 0.0 0.0 0.0 0.0 0.0 0.0 0.0 0.0 0.0 2.5 3.1 7.9 6.3 10.3 9.1 7.9 7.7 11.5 10.3 8.7 8.3 11.1 11.7 12.1 10.7 11.9 12.6 13.7 11.3 9.5 8.7 7.3 5.7 5.9 6.1 8.7 5.9 6.3 11.9 10.5
0.0 0.0 0.0 0.0 0.0 0.0 0.0 0.0 0.0 0.0 1.5 4.3 6.5 5.7 6.1 7.5 7.3 10.1 9.7 9.3 10.5 11.5 11.7 11.5 10.3 12.7 11.9 12.1 12.3 12.5 13.4 12.1 12.3 11.1 9.1 6.7 6.1 5.9 5.3 5.7 3.5 5.7 8.3
0.0 0.0 0.0 0.0 0.0 0.0 0.0 0.0 0.1 1.5 4.5 7.3 10.9 9.1 6.3 8.5 10.5 10.3 10.7 10.3 10.5 12.4 12.9 12.3 12.5 12.9 13.0 13.3 12.8 13.1 13.7 13.4 12.9 13.1 12.7 11.5 10.9 9.9 6.9 5.5 5.1 5.1 2.5
0.0 0.0 0.0 0.0 0.0 0.0 0.0 0.1 1.7 2.7 5.3 6.7 7.3 7.7 6.7 7.3 7.1 11.9 11.9 12.1 11.5 12.5 12.3 13.0 13.9 14.0 14.2 13.5 14.0 14.2 14.6 14.0 14.3 14.3 14.2 13.4 12.3 10.7 8.5 7.7 6.1 4.5 5.1
0.9 0.5 0.0 0.0 0.0 0.0 0.5 0.7 2.3 4.9 6.3 6.7 7.5 7.9 7.3 7.9 8.5 7.9 9.1 8.7 12.2 12.2 13.4 13.1 15.2 15.1 15.3 14.9 13.8 13.5 14.0 14.9 15.5 15.2 14.7 13.3 12.2 11.5 10.7 8.9 9.3 8.1 8.5
2.1 1.3 1.1 1.5 3.3 2.3 2.5 1.9 3.7 3.3 4.3 5.7 5.9 7.1 9.9 10.9 8.9 10.1 10.5 10.1 10.9 12.6 14.9 14.1 14.4 15.0 14.9 14.4 14.2 14.6 14.7 15.3 15.7 15.3 15.0 14.6 13.4 12.5 11.9 10.1 10.1 9.3 10.5
4.5 3.1 2.1 2.9 2.5 3.5 3.7 3.5 6.7 7.7 8.3 7.5 7.5 10.5 7.9 10.7 11.5 10.7 9.5 10.5 12.4 14.3 13.9 15.2 16.3 16.7 16.4 15.7 15.7 15.5 15.3 16.5 16.5 15.8 15.3 15.1 15.1 14.2 13.4 11.1 10.5 11.7 12.1
5.1 4.3 2.9 4.9 3.9 5.1 6.3 6.5 7.3 4.9 7.1 7.3 7.1 7.1 6.9 8.7 10.9 9.9 9.3 10.7 12.8 14.3 14.3 14.7 16.1 16.6 16.6 15.7 15.7 15.8 16.2 16.4 17.4 16.9 16.3 16.1 15.8 14.8 14.0 13.4 12.8 12.4 12.2
5.1 6.7 4.3 3.5 4.5 5.5 6.1 6.3 6.7 8.9 9.7 7.9 8.7 8.3 7.7 7.9 8.5 8.9 9.7 11.1 13.0 14.1 14.1 14.7 15.3 15.4 15.6 15.5 15.6 16.2 16.3 16.5 16.9 17.7 17.4 17.3 16.9 16.0 15.2 15.0 14.0 14.5 13.3
3.5 4.9 6.1 6.1 6.3 6.9 6.9 7.7 7.9 8.9 9.7 9.1 8.5 12.4 11.3 11.1 9.1 8.9 10.3 12.1 12.8 13.0 13.3 13.9 14.1 14.7 14.9 15.1 16.0 17.0 17.7 17.4 18.3 18.3 17.9 18.0 18.0 16.9 16.2 15.7 15.4 15.9 15.3
3.1 6.1 6.7 6.3 6.7 6.9 7.5 8.7 8.1 9.1 9.5 9.5 9.7 9.1 7.5 13.8 12.1 11.7 12.3 13.1 13.7 13.3 13.0 13.5 13.5 13.9 14.6 15.1 15.8 16.8 17.0 16.7 17.2 17.3 18.0 17.9 17.9 17.6 17.4 17.0 16.3 16.0 14.9
3.5 4.3 7.5 6.7 7.1 6.7 7.7 9.1 8.5 8.9 10.3 10.1 9.7 8.5 12.9 11.1 10.7 10.3 10.9 12.8 13.6 13.0 13.0 13.0 13.3 14.0 14.4 15.2 15.6 15.8 16.8 17.1 17.4 18.0 17.8 17.6 18.1 18.1 17.5 16.8 16.5 16.0 15.5
6.3 6.5 7.1 7.9 7.3 8.1 8.5 8.1 8.1 8.9 9.5 10.1 9.1 8.7 13.5 14.4 12.1 11.5 11.3 11.9 12.1 12.7 12.1 12.4 12.8 13.1 13.5 14.1 14.6 15.5 16.8 17.6 17.1 17.5 18.0 18.8 17.9 17.2 17.3 17.6 17.3 17.0 16.5
6.5 6.9 6.9 7.3 7.3 8.7 9.3 8.7 9.9 10.3 10.9 10.9 10.7 10.7 10.1 12.1 12.2 12.2 11.9 11.5 11.5 12.8 12.9 13.5 13.8 14.0 14.1 15.3 15.1 15.3 16.3 16.3 16.3 17.6 18.9 18.7 18.0 17.3 17.7 17.8 17.9 18.0 18.0
7.1 8.1 7.5 7.9 8.5 9.3 10.3 10.7 10.7 12.9 11.5 11.1 10.9 11.1 11.5 10.3 10.9 11.1 11.5 10.7 11.7 12.5 13.2 15.0 14.7 14.4 14.0 15.1 15.3 15.8 15.9 16.6 16.7 17.3 19.9 19.2 18.6 17.9 17.8 17.9 17.8 18.4 18.3
8.5 8.5 8.1 7.9 8.3 9.1 10.3 11.1 10.9 10.5 10.7 11.3 11.1 10.9 10.1 9.9 10.5 10.5 10.3 11.3 12.8 13.1 13.6 15.2 15.4 15.0 16.0 16.7 15.9 16.5 16.7 18.8 18.4 19.8 18.4 19.3 19.3 19.8 19.0 18.3 18.5 17.9 18.4
8.5 8.3 7.7 8.1 8.1 8.5 9.3 9.7 9.5 9.3 9.7 9.5 9.7 9.9 9.7 9.9 9.9 10.1 10.7 11.7 12.9 13.6 13.7 13.8 14.9 15.8 15.7 15.7 16.1 17.3 19.8 20.6 19.4 21.7 19.1 18.2 18.9 18.3 18.0 18.6 19.1 18.0 18.5